Location: Unspecified
(0.0000°N, 0.0000°E)
Time: 11:36:28
(UTC+00:00)

Fuji - Visible Passes

Search period start: 30 November 2022 00:00
Search period end: 10 December 2022 00:00
Orbit: 1479 x 1496 km, 50.0° (Epoch: 28 November)

Date Brightness Start Highest point End Pass type
(mag) Time Alt. Az. Time Alt. Az. Time Alt. Az.
30 Nov ? 18:54:16 10° NW 19:03:20 79° SW 19:12:28 10° SSE visible
30 Nov ? 21:01:48 10° WSW 21:05:22 13° SW 21:08:59 10° SSW visible
01 Dec ? 18:00:19 10° NNW 18:09:15 63° NE 18:18:13 10° SE visible
01 Dec ? 20:04:01 10° WNW 20:10:57 24° SW 20:17:56 10° S visible
02 Dec ? 04:35:07 10° S 04:41:19 20° SE 04:47:27 10° E visible
02 Dec ? 19:08:20 10° WNW 19:16:43 42° SW 19:25:11 10° SSE visible
03 Dec ? 18:13:35 10° NW 18:22:35 72° SW 18:31:41 10° SSE visible
03 Dec ? 20:22:40 10° WSW 20:24:44 11° SW 20:26:48 10° SW visible
04 Dec ? 04:46:32 10° SSW 04:54:53 39° SE 05:03:09 10° ENE visible
04 Dec ? 19:23:46 10° W 19:30:15 22° SW 19:36:48 10° S visible
05 Dec ? 03:53:56 10° S 04:00:37 22° SE 04:07:16 10° E visible
05 Dec ? 18:27:49 10° WNW 18:35:59 38° SW 18:44:15 10° SSE visible
06 Dec ? 03:03:33 10° SSE 03:06:09 11° SE 03:08:44 10° ESE visible
06 Dec ? 04:59:08 10° SSW 05:08:16 74° SE 05:17:21 10° NE visible
07 Dec ? 04:05:36 10° SSW 04:14:09 44° SE 04:22:38 10° ENE visible
07 Dec ? 18:43:36 10° W 18:49:33 19° SW 18:55:35 10° S visible
08 Dec ? 03:12:48 10° S 03:19:55 25° SE 03:26:59 10° ENE visible
08 Dec ? 05:12:37 10° SW 05:21:37 62° NW 05:30:34 10° NNE visible
09 Dec ? 02:21:35 10° SSE 02:25:30 13° SE 02:29:23 10° ESE visible
09 Dec ? 04:18:21 10° SSW 04:27:31 81° SE 04:36:39 10° NE visible
